Weather Roundup
Issued by NWS

Home | Current Version | Previous Version | Graphics & Text | Print | Product List | Glossary Off
Versions: 1 2 3 4 5 6 7 8 9 10 11 12 13 14 15 16 17 18 19 20 21 22 23 24 25 26 27 28 29 30 31 32 33 34 35 36 37 38 39 40 41 42 43 44 45 46 47 48 49 50

000
NZUS93 KARX 261359
HRRWXR

CURRENT HOURLY OBSERVATIONS ACROSS
MUCH OF THE UPPER MISSISSIPPI VALLEY
NATIONAL WEATHER SERVICE LA CROSSE WI
900 AM CDT SUN APR 26 2015


...SOUTHEAST MINNESOTA...


CITY           SKY/WX    TMP DP  RH WIND       PRES   REMARKS
ROCHESTER      SUNNY     46  24  42 E7        30.09R
ROCHESTER/MAYO FAIR      45  22  41 CALM      30.09R
WINONA         SUNNY     43  28  56 CALM      30.11R
AUSTIN         SUNNY     45  28  53 E9        30.07R
ALBERT LEA     SUNNY     46  21  36 SE8       30.07R
DODGE CENTER   SUNNY     45  28  53 SE8       30.08R
PRESTON        SUNNY     43  21  42 NE6       30.08R
OWATONNA       SUNNY     46  21  36 SE9       30.08R
FARIBAULT      SUNNY     45  28  53 CALM      30.09R
$$

...ELSEWHERE IN MINNESOTA...


CITY           SKY/WX    TMP DP  RH WIND       PRES   REMARKS
MINNEAPOLIS    SUNNY     44  24  45 E6        30.11R
INTNL FALLS    SUNNY     43  22  43 CALM      30.18R
DULUTH         SUNNY     44  16  32 E7        30.14R
RED WING       SUNNY     46  25  42 SE5       30.09S
REDWOOD FALLS  SUNNY     44  25  47 NE5       30.09R
MANKATO        SUNNY     46  27  46 CALM      30.08R
WORTHINGTON    SUNNY     45  36  70 N5        30.07R
FAIRMONT       SUNNY     45  30  57 N6        30.06R
$$

...SOUTHWEST WISCONSIN...


CITY           SKY/WX    TMP DP  RH WIND       PRES   REMARKS
LA CROSSE      SUNNY     46  24  42 CALM      30.09R
PRAIRIE DU CHI SUNNY     40  27  59 CALM      30.06R
BOSCOBEL       SUNNY     44  27  51 NE6       30.08R
LONE ROCK      NOT AVBL
PLATTEVILLE    SUNNY     42  28  58 NE12      30.03R
FORT MC COY    SUNNY     42  22  45 E7        30.09R
VIROQUA        FAIR      42  25  52 NE7       30.06R
WIS DELLS      SUNNY     39  24  55 NE5       30.07R
$$

...ELSEWHERE IN WISCONSIN...


CITY           SKY/WX    TMP DP  RH WIND       PRES   REMARKS
MILWAUKEE      SUNNY     42  29  59 NE15      30.04R
MADISON        MOSUNNY   44  29  55 NE5       30.06R
GREEN BAY      SUNNY     45  24  43 N8        30.06R
EAU CLAIRE     NOT AVBL
BLACK RVR FLS  FAIR      40  22  46 NE6       30.09R
MEDFORD        SUNNY     41  23  49 NE9       30.08R
WAUSAU         SUNNY     44  23  43 NW6       30.07R
WIS RAPIDS     SUNNY     45  19  35 E5        30.10R
MARSHFIELD     SUNNY     44  23  43 NE7       30.08R
RICE LAKE      SUNNY     40  22  49 CALM      30.13R
$$

...NORTHEAST IOWA...


CITY           SKY/WX    TMP DP  RH WIND       PRES   REMARKS
DECORAH        SUNNY     41  23  48 NE8       30.06R
MASON CITY     SUNNY     45  21  38 E7        30.08R
CHARLES CITY   SUNNY     43  25  49 E9        30.06R
OELWEIN        SUNNY     43  25  49 NE12      30.06R
$$

...ELSEWHERE IN IOWA...


CITY           SKY/WX    TMP DP  RH WIND       PRES   REMARKS
DES MOINES     MOSUNNY   49  31  49 E12       30.04R
IOWA CITY      SUNNY     46  29  51 NE7       30.04R
FORT DODGE     SUNNY     46  37  71 E3        30.07R
$$

...NORTHERN ILLINOIS...


CITY           SKY/WX    TMP DP  RH WIND       PRES   REMARKS
CHICAGO-OHARE  SUNNY     46  29  51 NE10      30.01R
CHICAGO-MIDWAY SUNNY     48  30  49 NE16      30.01R
MOLINE         SUNNY     46  28  49 E12       30.02R
ROCKFORD       SUNNY     47  28  47 NE9       30.06R
PEORIA         SUNNY     48  32  53 E13G20    29.98R
$$

NOTE: "FAIR" INDICATES FEW OR NO CLOUDS BELOW 12,000 FEET WITH NO
SIGNIFICANT WEATHER AND/OR OBSTRUCTIONS TO VISIBILITY. WIND
SPEEDS ARE IN MILES-PER-HOUR.



USA.gov is the U.S. government's official web portal to all federal, state and local government web resources and services.